[[[{"header":{"parameterUnit":"kt","parameterCategory":2,"dx":1,"dy":1,"la1":30.253999710083008,"la2":30.299108505249023,"lo1":-89.0895004272461,"lo2":-89.04439544677734,"nx":28,"ny":28,"refTime":"2022-10-19T21:00:00:Z","depth":"0","parameterNumber":2,"parameterNumberName":"U-component_of_CURRENTS"},"data":[0.1699,0.1761,0.1826,0.1847,0.1845,0.1811,0.1815,0.1848,0.1785,0.1588,0.1341,0.1134,0.1029,0.091,0.0929,0.0893,0.0793,0.0601,0.0661,0.0867,0.0863,0.0859,0.0902,0.0887,0.0886,0.0436,0.0432,0.0428,0.1696,0.177,0.1824,0.1852,0.1839,0.1834,0.184,0.1852,0.185,0.1732,0.1653,0.1308,0.1164,0.1049,0.0951,0.0958,0.0867,0.0931,0.0677,0.0699,0.0949,0.1,0.1005,0.1005,0.1005,0.1005,0.1005,0.1005,0.1724,0.1756,0.1813,0.1841,0.1834,0.1833,0.1842,0.1844,0.183,0.177,0.1695,0.156,0.1315,0.1148,0.1146,0.1103,0.0929,0.0978,0.0845,0.067,0.0712,0.1042,0.0961,0.0962,0.0963,0.0963,0.0964,0,0.1735,0.176,0.179,0.1819,0.1829,0.1828,0.1825,0.1821,0.1795,0.1764,0.1705,0.165,0.1518,0.134,0.1211,0.112,0.0931,0.0971,0.1041,0.079,0.0662,0.0657,0.0906,0.0798,0.0798,0.0798,0.0798,0.0797,0.1759,0.1763,0.1802,0.1811,0.1824,0.1821,0.182,0.1808,0.1797,0.1741,0.1719,0.1656,0.1587,0.1417,0.1287,0.1127,0.1003,0.0966,0.0908,0.104,0.0914,0.0754,0.0773,0.0794,0.0795,0.0795,0.0795,0,0.1778,0.1797,0.1805,0.1824,0.1823,0.1819,0.1816,0.1809,0.1783,0.1742,0.1729,0.1667,0.158,0.1481,0.1265,0.1176,0.098,0.0974,0.0992,0.0968,0.1021,0.0932,0.0642,0.0652,0.0902,0.0903,0.0905,0,0.1819,0.181,0.1845,0.1836,0.1834,0.1823,0.1812,0.18,0.1767,0.1734,0.1698,0.1653,0.1516,0.1427,0.1293,0.1159,0.1096,0.1003,0.0973,0.0936,0.0943,0.0974,0.0886,0.0849,0.085,0.0851,0.0851,0,0.1865,0.185,0.1854,0.1838,0.1835,0.1827,0.1825,0.1784,0.1762,0.1718,0.1695,0.1604,0.1553,0.1402,0.129,0.1265,0.1096,0.1034,0.0996,0.1003,0.0926,0.0932,0.0915,0.0852,0.0853,0.0853,0.0853,0,0.1897,0.1904,0.1876,0.1886,0.1871,0.1848,0.1822,0.1791,0.174,0.171,0.1654,0.1609,0.1528,0.1484,0.1306,0.1351,0.1225,0.114,0.1133,0.1213,0.1202,0.1085,0.1013,0.1084,0.1065,0.1067,0.1069,0,0.1961,0.1935,0.1937,0.1903,0.1878,0.1868,0.1829,0.1794,0.1764,0.1713,0.1651,0.1582,0.1547,0.1515,0.1432,0.1338,0.1248,0.1322,0.1134,0.113,0.1234,0.1182,0.1134,0.1041,0.1091,0.1089,0.1087,0,0.1995,0.2003,0.199,0.1997,0.1952,0.1919,0.1877,0.1833,0.1818,0.1736,0.169,0.1575,0.1556,0.151,0.1459,0.1382,0.1287,0.1341,0.1336,0.1316,0.1103,0.1202,0.1196,0.122,0.1217,0.1215,0.1105,0,0.2083,0.2059,0.2033,0.2013,0.1973,0.1936,0.1899,0.1864,0.1841,0.1799,0.1713,0.1619,0.1536,0.1509,0.1466,0.1388,0.1375,0.1344,0.1351,0.1309,0.1268,0.1254,0.1418,0.1417,0.1417,0.1417,0,0,0.2133,0.2112,0.2091,0.2058,0.2029,0.2022,0.1983,0.1935,0.184,0.1811,0.1795,0.1634,0.1577,0.1491,0.1472,0.143,0.1381,0.1451,0.1335,0.1326,0.1317,0.1277,0.1263,0.1417,0.1417,0.1417,0.1417,0,0.2172,0.214,0.2116,0.2079,0.2049,0.202,0.2016,0.1941,0.1905,0.1817,0.1771,0.1706,0.1583,0.1532,0.1492,0.1431,0.1405,0.1418,0.1429,0.1336,0.1328,0.132,0.1278,0.1266,0.1416,0.1416,0.1416,0,0.2214,0.2201,0.2179,0.2121,0.2081,0.2036,0.202,0.1969,0.1934,0.1868,0.1774,0.1716,0.1638,0.1555,0.1519,0.1524,0.1416,0.1457,0.1456,0.1471,0.1375,0.1366,0.1357,0.147,0.147,0.147,0,0,0.2243,0.2219,0.2171,0.2123,0.21,0.2046,0.2005,0.1983,0.1908,0.1869,0.1801,0.1732,0.1662,0.1622,0.1553,0.1475,0.1442,0.1466,0.1463,0.1461,0.1475,0.138,0.1371,0.1472,0.1472,0.1472,0,0,0.2246,0.2209,0.2216,0.2145,0.2105,0.2021,0.1973,0.1954,0.1862,0.1864,0.1797,0.1776,0.1697,0.1659,0.1684,0.1578,0.1585,0.1577,0.1608,0.1604,0.1601,0.1637,0.1688,0,0,0,0,0,0.228,0.2223,0.2232,0.2217,0.2107,0.2032,0.2011,0.1953,0.1954,0.1917,0.1842,0.1844,0.1656,0.1677,0.1657,0.1652,0.1493,0.1489,0.1486,0.1506,0.1503,0.15,0,0,0,0,0,0,0.2274,0.2257,0.2233,0.2156,0.2131,0.2032,0.2022,0.2003,0.1957,0.1952,0.1854,0.1841,0.1794,0.1686,0.1668,0.1664,0.1694,0.1492,0.1488,0.1486,0.1505,0.1502,0.15,0,0,0,0,0,0.2269,0.2255,0.2103,0.2154,0.2132,0.205,0.2023,0.2007,0.1959,0.1885,0.1869,0.1923,0.1795,0.1777,0.1675,0.1674,0.1706,0.1699,0.149,0.1487,0.1485,0.1503,0,0,0,0,0,0,0.2265,0.2215,0.2095,0.2085,0.2174,0.2053,0.2035,0.2011,0.1892,0.1878,0.1952,0.195,0.1794,0.178,0.1766,0.168,0.1716,0.1709,0.1705,0.1488,0.1486,0.1484,0,0,0,0,0,0,0.2223,0.2207,0.2089,0.2118,0.211,0.2056,0.204,0.1968,0.1893,0.1964,0.196,0.1953,0.1833,0.1783,0.1772,0.1659,0.1724,0.1717,0.1713,0.171,0.1486,0.1484,0,0,0,0,0,0,0.2214,0.22,0.212,0.2114,0.2106,0.1978,0.199,0.1885,0.1903,0.197,0.1906,0.1908,0.1838,0.1824,0.1776,0.1667,0.1661,0.1723,0.1719,0.1716,0.1714,0,0,0,0,0,0,0,0.2207,0.2324,0.2169,0.211,0.2103,0.1992,0.1988,0.1984,0.1903,0.1904,0.1906,0.1907,0.176,0.1753,0.1746,0.1674,0,0,0.1724,0.1721,0,0,0,0,0,0,0,0,0.2327,0.2325,0.2168,0.2167,0.2165,0.1991,0.1988,0.1985,0.1903,0.1904,0.1905,0.1906,0.1758,0.1753,0.1747,0,0,0,0,0,0,0,0,0,0,0,0,0,0,0,0.2168,0.2167,0,0.1991,0.1988,0.1986,0.1903,0.1904,0.1905,0.1906,0.1757,0.1752,0.1747,0,0,0,0,0,0,0,0,0,0,0,0,0,0,0,0,0,0,0,0,0,0,0,0,0,0,0,0,0,0,0,0,0,0,0,0,0,0,0,0,0,0,0,0,0,0,0,0,0,0,0,0,0,0,0,0,0,0,0,0,0,0,0,0,0,0,0,0,0]}],[{"header":{"parameterUnit":"kt","parameterCategory":2,"dx":1,"dy":1,"la1":30.253999710083008,"la2":30.299108505249023,"lo1":-89.0895004272461,"lo2":-89.04439544677734,"nx":28,"ny":28,"refTime":"2022-10-19T21:00:00:Z","depth":"0","parameterNumber":3,"parameterNumberName":"V-component_of_CURRENTS"},"data":[-0.31,-0.3029,-0.3066,-0.2992,-0.298,-0.2909,-0.2885,-0.2866,-0.2851,-0.2751,-0.2653,-0.2602,-0.196,-0.0802,0.0116,0.0241,0.0649,0.0646,0.0774,0.0283,0.0195,0.0111,0.0177,0.0971,0.0974,0.1657,0.1667,0.1674,-0.3201,-0.3191,-0.318,-0.316,-0.313,-0.3168,-0.3132,-0.3105,-0.3083,-0.3037,-0.3014,-0.2774,-0.2339,-0.1998,-0.139,-0.0957,-0.0929,-0.0673,-0.0482,-0.0393,-0.1357,-0.1343,-0.0859,-0.0859,-0.086,-0.086,-0.086,-0.0861,-0.3385,-0.3354,-0.3349,-0.3332,-0.3324,-0.3292,-0.3255,-0.3273,-0.3232,-0.3144,-0.3167,-0.3079,-0.2803,-0.2674,-0.2533,-0.2038,-0.2143,-0.1827,-0.1585,-0.1614,-0.1425,-0.2592,-0.2316,-0.2319,-0.2321,-0.2323,-0.2325,0,-0.3505,-0.3514,-0.3504,-0.3491,-0.3479,-0.346,-0.3441,-0.3417,-0.3407,-0.3367,-0.329,-0.3244,-0.3116,-0.2961,-0.2858,-0.2795,-0.2429,-0.2704,-0.2324,-0.1772,-0.173,-0.1536,-0.2746,-0.2474,-0.2478,-0.2481,-0.2483,-0.2484,-0.3614,-0.3608,-0.3634,-0.3615,-0.362,-0.3609,-0.3589,-0.3607,-0.3579,-0.3497,-0.3445,-0.3349,-0.3309,-0.3171,-0.3138,-0.3052,-0.2789,-0.2787,-0.2844,-0.2492,-0.2214,-0.2206,-0.2067,-0.2524,-0.2519,-0.2514,-0.2511,0,-0.3653,-0.3694,-0.369,-0.3719,-0.3726,-0.3703,-0.3684,-0.3664,-0.3661,-0.3591,-0.3574,-0.3563,-0.3477,-0.3471,-0.3336,-0.3333,-0.2989,-0.3179,-0.3018,-0.2963,-0.2574,-0.2358,-0.1936,-0.1735,-0.3012,-0.3011,-0.3009,0,-0.3718,-0.3718,-0.3762,-0.3753,-0.3747,-0.3762,-0.3752,-0.3776,-0.3757,-0.3708,-0.3774,-0.3718,-0.3707,-0.3631,-0.3606,-0.3471,-0.3438,-0.3399,-0.3355,-0.3204,-0.3193,-0.2812,-0.2584,-0.3364,-0.3366,-0.3368,-0.337,0,-0.3725,-0.3766,-0.3774,-0.3772,-0.3801,-0.3807,-0.3828,-0.3856,-0.3845,-0.3865,-0.3834,-0.3835,-0.3773,-0.3714,-0.3672,-0.3707,-0.3507,-0.3524,-0.3423,-0.3421,-0.3195,-0.3179,-0.2669,-0.3372,-0.3373,-0.3373,-0.3374,0,-0.375,-0.3777,-0.3785,-0.38,-0.3795,-0.3821,-0.3848,-0.3881,-0.3915,-0.3926,-0.3933,-0.3935,-0.3915,-0.3931,-0.3813,-0.3878,-0.3785,-0.3731,-0.3719,-0.3698,-0.3686,-0.3307,-0.3186,-0.2808,-0.3585,-0.3587,-0.3589,0,-0.3738,-0.3771,-0.3786,-0.3818,-0.382,-0.3859,-0.3884,-0.3937,-0.398,-0.3993,-0.4006,-0.3991,-0.4045,-0.4023,-0.3997,-0.3938,-0.3861,-0.3973,-0.3725,-0.3717,-0.3713,-0.3657,-0.3462,-0.3237,-0.3621,-0.3618,-0.3615,0,-0.3715,-0.3755,-0.3758,-0.3762,-0.3813,-0.3849,-0.3897,-0.3955,-0.3967,-0.4027,-0.4016,-0.4053,-0.4047,-0.4043,-0.4049,-0.4005,-0.391,-0.3983,-0.3978,-0.3876,-0.3695,-0.37,-0.3678,-0.3884,-0.3881,-0.3879,-0.3641,0,-0.3704,-0.3721,-0.374,-0.3784,-0.381,-0.3854,-0.3903,-0.3951,-0.3986,-0.402,-0.4031,-0.4047,-0.4042,-0.4051,-0.4068,-0.4025,-0.3987,-0.3983,-0.3956,-0.3951,-0.3849,-0.3829,-0.4051,-0.4051,-0.405,-0.405,0,0,-0.3662,-0.3702,-0.3732,-0.3756,-0.3777,-0.3853,-0.3872,-0.3919,-0.4002,-0.4013,-0.4019,-0.403,-0.4038,-0.4031,-0.4051,-0.4055,-0.3988,-0.4042,-0.3973,-0.3965,-0.3957,-0.3859,-0.384,-0.4049,-0.4049,-0.4049,-0.4048,0,-0.3671,-0.3679,-0.3703,-0.3734,-0.3809,-0.3854,-0.387,-0.394,-0.3959,-0.4011,-0.4005,-0.4014,-0.4034,-0.4028,-0.4024,-0.4051,-0.3972,-0.4044,-0.4058,-0.3972,-0.3964,-0.3957,-0.386,-0.3844,-0.4047,-0.4047,-0.4047,0,-0.3635,-0.3684,-0.3696,-0.3766,-0.3807,-0.3841,-0.3862,-0.3922,-0.3957,-0.3959,-0.3992,-0.3994,-0.3988,-0.4004,-0.4008,-0.4,-0.3951,-0.4005,-0.4008,-0.4001,-0.391,-0.3902,-0.3896,-0.3972,-0.3971,-0.3971,0,0,-0.3636,-0.3664,-0.3729,-0.3772,-0.3784,-0.3848,-0.3881,-0.3913,-0.3955,-0.3963,-0.3976,-0.3978,-0.3979,-0.3984,-0.3987,-0.4007,-0.3947,-0.3997,-0.4,-0.4003,-0.3998,-0.3909,-0.3903,-0.3971,-0.3971,-0.3971,0,0,-0.3648,-0.3709,-0.3722,-0.3751,-0.382,-0.3897,-0.3915,-0.3941,-0.3963,-0.3955,-0.3955,-0.3956,-0.397,-0.3966,-0.3961,-0.3965,-0.3949,-0.3951,-0.397,-0.3974,-0.3978,-0.3969,-0.3924,0,0,0,0,0,-0.3696,-0.3705,-0.3716,-0.3731,-0.3811,-0.3894,-0.3905,-0.3936,-0.3927,-0.3941,-0.3954,-0.3927,-0.396,-0.3956,-0.3958,-0.3949,-0.3962,-0.3964,-0.3965,-0.3993,-0.3998,-0.4002,0,0,0,0,0,0,-0.3703,-0.3719,-0.3717,-0.3792,-0.3813,-0.3892,-0.3882,-0.3889,-0.3926,-0.3924,-0.3929,-0.3928,-0.3922,-0.3953,-0.3955,-0.3947,-0.3923,-0.3963,-0.3964,-0.3965,-0.3995,-0.3999,-0.4002,0,0,0,0,0,-0.3709,-0.3722,-0.3834,-0.3793,-0.381,-0.3866,-0.3879,-0.3886,-0.3901,-0.3921,-0.392,-0.3925,-0.3923,-0.3924,-0.3954,-0.3946,-0.3922,-0.3922,-0.3964,-0.3965,-0.3965,-0.3997,0,0,0,0,0,0,-0.3713,-0.3716,-0.3839,-0.3847,-0.3781,-0.3862,-0.3871,-0.3883,-0.3893,-0.3898,-0.3915,-0.3914,-0.3924,-0.3924,-0.3925,-0.3946,-0.392,-0.3921,-0.3922,-0.3964,-0.3965,-0.3966,0,0,0,0,0,0,-0.3711,-0.3721,-0.3843,-0.3826,-0.3832,-0.3858,-0.3866,-0.3878,-0.389,-0.3883,-0.3885,-0.3914,-0.3911,-0.3925,-0.3925,-0.3945,-0.392,-0.392,-0.3921,-0.3921,-0.3965,-0.3966,0,0,0,0,0,0,-0.3716,-0.3726,-0.3823,-0.3827,-0.3832,-0.3916,-0.3866,-0.393,-0.3924,-0.3879,-0.3921,-0.392,-0.3911,-0.3912,-0.3926,-0.3945,-0.3945,-0.392,-0.392,-0.392,-0.3921,0,0,0,0,0,0,0,-0.3721,-0.3642,-0.3804,-0.3829,-0.3833,-0.3925,-0.3926,-0.3927,-0.3924,-0.3923,-0.3921,-0.392,-0.3915,-0.3916,-0.3917,-0.3945,0,0,-0.3919,-0.392,0,0,0,0,0,0,0,0,-0.3639,-0.3641,-0.3805,-0.3807,-0.3809,-0.3925,-0.3926,-0.3926,-0.3923,-0.3923,-0.3922,-0.3921,-0.3915,-0.3916,-0.3917,0,0,0,0,0,0,0,0,0,0,0,0,0,0,0,-0.3805,-0.3807,0,-0.3925,-0.3926,-0.3926,-0.3923,-0.3923,-0.3922,-0.3921,-0.3916,-0.3916,-0.3917,0,0,0,0,0,0,0,0,0,0,0,0,0,0,0,0,0,0,0,0,0,0,0,0,0,0,0,0,0,0,0,0,0,0,0,0,0,0,0,0,0,0,0,0,0,0,0,0,0,0,0,0,0,0,0,0,0,0,0,0,0,0,0,0,0,0,0,0,0]}]],[[{"header":{"parameterUnit":"kt","parameterCategory":2,"dx":1,"dy":1,"la1":30.253999710083008,"la2":30.299108505249023,"lo1":-89.0895004272461,"lo2":-89.04439544677734,"nx":28,"ny":28,"refTime":"2022-10-19T21:00:00:Z","depth":"2","parameterNumber":2,"parameterNumberName":"U-component_of_CURRENTS"},"data":[-0.3122,-0.302,-0.2994,-0.2794,-0.2702,-0.2516,-0.2454,-0.237,-0.2337,-0.2327,-0.2335,-0.2288,-0.215,-0.1672,-0.1235,-0.088,-0.1108,-0.0744,-0.1569,-0.1683,-0.1756,-0.1774,-0.1748,0,0,0,0,0,-0.3205,-0.3156,-0.309,-0.2944,-0.2843,-0.2853,-0.2787,-0.2716,-0.2619,-0.2611,-0.255,-0.2434,-0.2071,-0.1939,-0.1427,-0.1242,-0.1207,-0.1173,-0.1191,-0.1268,-0.1338,-0.1272,-0.0573,-0.0572,-0.057,-0.0569,0,0,-0.3319,-0.3267,-0.317,-0.31,-0.3025,-0.2969,-0.2912,-0.2925,-0.2912,-0.2877,-0.292,-0.2843,-0.2667,-0.2374,-0.2084,-0.1855,-0.2095,-0.2053,-0.2084,-0.2125,-0.2091,-0.2001,-0.1614,-0.1619,-0.1623,-0.1627,-0.163,0,-0.3353,-0.3325,-0.3291,-0.3187,-0.3145,-0.3127,-0.3137,-0.3124,-0.3245,-0.3248,-0.3214,-0.3177,-0.2956,-0.2713,-0.2583,-0.2467,-0.2735,-0.2518,-0.3192,-0.2545,-0.2456,-0.2444,-0.2492,-0.2168,-0.2177,-0.2183,-0.2188,-0.2191,-0.3352,-0.3344,-0.3299,-0.326,-0.3272,-0.3298,-0.3302,-0.3424,-0.3444,-0.3528,-0.35,-0.3469,-0.3402,-0.326,-0.3166,-0.3056,-0.3285,-0.2712,-0.2771,-0.3349,-0.3334,-0.3352,-0.3369,-0.2281,-0.2269,-0.226,-0.2252,0,-0.3343,-0.3331,-0.3339,-0.3375,-0.3379,-0.341,-0.3484,-0.3522,-0.3647,-0.3669,-0.3698,-0.3795,-0.3713,-0.3749,-0.3692,-0.3666,-0.3578,-0.348,-0.3079,-0.3001,-0.3399,-0.3408,-0.3221,-0.3214,-0.3208,-0.3203,-0.3198,0,-0.3327,-0.336,-0.3349,-0.3366,-0.3397,-0.3514,-0.3582,-0.369,-0.3798,-0.3818,-0.3974,-0.3955,-0.4053,-0.3996,-0.3977,-0.3789,-0.3871,-0.3698,-0.3661,-0.3364,-0.3323,-0.3863,-0.3863,-0.3888,-0.389,-0.3891,-0.3893,0,-0.3321,-0.3365,-0.3377,-0.3409,-0.3509,-0.3567,-0.3644,-0.379,-0.3841,-0.3981,-0.3992,-0.4097,-0.408,-0.4079,-0.401,-0.4054,-0.3901,-0.3967,-0.3736,-0.3721,-0.3333,-0.3285,-0.3895,-0.3895,-0.3895,-0.3896,-0.3897,0,-0.3347,-0.3341,-0.3374,-0.3462,-0.3485,-0.3556,-0.37,-0.3791,-0.3922,-0.3974,-0.4054,-0.409,-0.415,-0.4141,-0.4103,-0.4135,-0.4063,-0.4026,-0.4018,-0.3809,-0.3783,-0.3243,-0.3172,-0.3889,-0.389,-0.3892,-0.3893,0,-0.3335,-0.3344,-0.3385,-0.3459,-0.3479,-0.3585,-0.3673,-0.3786,-0.3862,-0.3938,-0.4009,-0.4063,-0.4078,-0.4107,-0.4135,-0.4105,-0.4084,-0.4148,-0.3965,-0.3957,-0.378,-0.3815,-0.3445,-0.3214,-0.3907,-0.3906,-0.3905,0,-0.333,-0.3347,-0.3356,-0.3375,-0.3477,-0.3539,-0.3632,-0.3745,-0.379,-0.3875,-0.3936,-0.4028,-0.4039,-0.4059,-0.4092,-0.4109,-0.4098,-0.406,-0.4058,-0.3935,-0.4011,-0.3851,-0.3825,-0.413,-0.413,-0.413,-0.3916,0,-0.3364,-0.3362,-0.3366,-0.3398,-0.3467,-0.3521,-0.3612,-0.3673,-0.3705,-0.3769,-0.3841,-0.3896,-0.3946,-0.3977,-0.3989,-0.4044,-0.3968,-0.3988,-0.3919,-0.401,-0.3903,-0.3894,-0.3959,-0.3957,-0.3955,-0.3953,0,0,-0.3366,-0.3346,-0.3355,-0.3381,-0.3434,-0.3495,-0.3542,-0.3603,-0.3695,-0.373,-0.3705,-0.3797,-0.38,-0.3888,-0.3937,-0.3955,-0.3894,-0.3889,-0.3985,-0.399,-0.3993,-0.3895,-0.3889,-0.395,-0.3949,-0.3948,-0.3948,0,-0.3374,-0.3345,-0.3325,-0.3384,-0.3452,-0.3512,-0.3516,-0.36,-0.3621,-0.3701,-0.3688,-0.373,-0.3756,-0.3795,-0.381,-0.3926,-0.3796,-0.3916,-0.397,-0.397,-0.3977,-0.3982,-0.3888,-0.3884,-0.3943,-0.3943,-0.3943,0,-0.3381,-0.3385,-0.337,-0.3414,-0.3458,-0.3517,-0.3518,-0.3572,-0.3624,-0.3598,-0.3632,-0.3642,-0.365,-0.371,-0.3716,-0.3691,-0.3721,-0.3737,-0.3748,-0.3701,-0.3693,-0.3703,-0.3712,-0.3587,-0.3586,-0.3585,0,0,-0.3388,-0.3357,-0.3425,-0.3423,-0.3442,-0.3511,-0.3549,-0.3573,-0.3614,-0.3617,-0.3606,-0.3604,-0.3625,-0.3626,-0.3628,-0.3686,-0.3616,-0.3695,-0.3712,-0.3726,-0.3687,-0.3683,-0.3694,-0.3581,-0.3581,-0.3581,0,0,-0.3405,-0.3415,-0.3413,-0.3398,-0.3477,-0.3569,-0.3585,-0.3603,-0.3628,-0.3598,-0.3569,-0.356,-0.3573,-0.356,-0.3516,-0.3591,-0.3522,-0.353,-0.3601,-0.3621,-0.3637,-0.3586,-0.3416,0,0,0,0,0,-0.3439,-0.3418,-0.3416,-0.3422,-0.3479,-0.3578,-0.3596,-0.3612,-0.357,-0.3588,-0.3591,-0.3506,-0.3551,-0.3512,-0.3507,-0.3524,-0.3529,-0.3538,-0.3547,-0.3648,-0.367,-0.3689,0,0,0,0,0,0,-0.3441,-0.3443,-0.342,-0.35,-0.3516,-0.3576,-0.3541,-0.3548,-0.3566,-0.3558,-0.3521,-0.3507,-0.3487,-0.3508,-0.3505,-0.3523,-0.3417,-0.3533,-0.3541,-0.3548,-0.3656,-0.3674,-0.3689,0,0,0,0,0,-0.3444,-0.3446,-0.35,-0.3504,-0.3517,-0.3561,-0.3536,-0.3541,-0.354,-0.3535,-0.3522,-0.3542,-0.3492,-0.3482,-0.3506,-0.3526,-0.3419,-0.3418,-0.3538,-0.3544,-0.355,-0.3665,0,0,0,0,0,0,-0.3446,-0.3473,-0.3506,-0.3517,-0.3458,-0.3557,-0.356,-0.3535,-0.3512,-0.3507,-0.3554,-0.3548,-0.3496,-0.3487,-0.3481,-0.3531,-0.342,-0.3419,-0.3419,-0.3543,-0.3547,-0.3552,0,0,0,0,0,0,-0.3474,-0.3479,-0.3512,-0.3451,-0.3455,-0.3554,-0.3556,-0.3559,-0.3505,-0.3529,-0.3526,-0.355,-0.3449,-0.3492,-0.3486,-0.3499,-0.3421,-0.342,-0.342,-0.3419,-0.3546,-0.355,0,0,0,0,0,0,-0.3479,-0.3484,-0.3448,-0.3451,-0.3454,-0.357,-0.3554,-0.3569,-0.3574,-0.3525,-0.3562,-0.3557,-0.3451,-0.3448,-0.3491,-0.3507,-0.3501,-0.3421,-0.3421,-0.342,-0.342,0,0,0,0,0,0,0,-0.3484,-0.3408,-0.3448,-0.3451,-0.3453,-0.3614,-0.3617,-0.3619,-0.3573,-0.3568,-0.3563,-0.3559,-0.3426,-0.3425,-0.3424,-0.3513,0,0,-0.3421,-0.3421,0,0,0,0,0,0,0,0,-0.341,-0.3409,-0.3448,-0.3451,-0.3453,-0.3614,-0.3616,-0.3619,-0.3572,-0.3568,-0.3564,-0.3561,-0.3426,-0.3425,-0.3425,0,0,0,0,0,0,0,0,0,0,0,0,0,0,0,-0.3448,-0.345,0,-0.3615,-0.3616,-0.3618,-0.3572,-0.3568,-0.3565,-0.3562,-0.3426,-0.3425,-0.3425,0,0,0,0,0,0,0,0,0,0,0,0,0,0,0,0,0,0,0,0,0,0,0,0,0,0,0,0,0,0,0,0,0,0,0,0,0,0,0,0,0,0,0,0,0,0,0,0,0,0,0,0,0,0,0,0,0,0,0,0,0,0,0,0,0,0,0,0,0]}],[{"header":{"parameterUnit":"kt","parameterCategory":2,"dx":1,"dy":1,"la1":30.253999710083008,"la2":30.299108505249023,"lo1":-89.0895004272461,"lo2":-89.04439544677734,"nx":28,"ny":28,"refTime":"2022-10-19T21:00:00:Z","depth":"2","parameterNumber":3,"parameterNumberName":"V-component_of_CURRENTS"},"data":[0.071,0.0587,0.057,0.0283,0.0136,-0.0113,-0.024,-0.0321,-0.0292,-0.0129,0.0286,0.05,0.123,0.158,0.1749,0.1983,0.1708,0.183,0.1591,0.1801,0.1761,0.2046,0.2263,0,0,0,0,0,0.0811,0.0769,0.067,0.0464,0.0316,0.0271,0.011,0.0005,-0.0175,-0.0113,-0.0175,0.0554,0.0977,0.126,0.169,0.1762,0.1717,0.1719,0.1931,0.1911,0.1888,0.2024,0.2118,0.2113,0.2109,0.2105,0,0,0.0991,0.0926,0.081,0.0652,0.053,0.0381,0.0248,0.0176,0.0059,-0.0028,0.0002,0.0206,0.0594,0.0994,0.0976,0.1138,0.122,0.1595,0.1592,0.1582,0.1703,0.1681,0.1713,0.1709,0.1705,0.1702,0.1699,0,0.1083,0.105,0.095,0.0779,0.0655,0.054,0.0427,0.0365,0.0315,0.0271,0.0179,0.0157,0.0247,0.0612,0.0749,0.0861,0.1207,0.1256,0.0799,0.1836,0.1816,0.1878,0.1872,0.1862,0.1858,0.1855,0.1853,0.1851,0.1206,0.1122,0.096,0.0873,0.0795,0.0665,0.0587,0.0544,0.0508,0.0462,0.0438,0.0384,0.0363,0.0423,0.0659,0.0744,0.0771,0.1168,0.1463,0.1063,0.1121,0.1138,0.1155,0.1809,0.1815,0.1819,0.1822,0,0.128,0.1195,0.1039,0.0903,0.0854,0.076,0.0667,0.0623,0.0615,0.0578,0.0564,0.0616,0.0586,0.0679,0.0781,0.0929,0.1003,0.1,0.1291,0.1368,0.116,0.1174,0.0991,0.0988,0.0986,0.0984,0.0982,0,0.1349,0.1234,0.1112,0.1032,0.0899,0.0864,0.0775,0.0762,0.0763,0.0732,0.0816,0.0806,0.0967,0.0968,0.107,0.1096,0.1092,0.1275,0.1314,0.1648,0.1673,0.1537,0.1559,0.1366,0.1367,0.1369,0.1371,0,0.1456,0.1294,0.1165,0.1118,0.1014,0.0959,0.0923,0.0935,0.0923,0.0941,0.0937,0.1001,0.103,0.1098,0.1188,0.1276,0.1213,0.14,0.1376,0.1371,0.1724,0.1754,0.1373,0.1373,0.1373,0.1374,0.1375,0,0.1522,0.143,0.1269,0.1166,0.1134,0.107,0.1029,0.1004,0.1045,0.1067,0.1106,0.1205,0.1241,0.1348,0.139,0.1415,0.1445,0.153,0.1527,0.1575,0.1696,0.1823,0.1733,0.15,0.1502,0.1504,0.1506,0,0.1637,0.148,0.1472,0.1327,0.1241,0.1267,0.1222,0.1228,0.126,0.1269,0.1386,0.1425,0.1504,0.1535,0.1558,0.1694,0.1638,0.1719,0.1747,0.1745,0.1707,0.1556,0.1919,0.1753,0.153,0.1528,0.1526,0,0.1747,0.1641,0.1619,0.1558,0.1515,0.1492,0.1431,0.1428,0.1406,0.1438,0.1433,0.1532,0.1599,0.1658,0.1771,0.1794,0.1679,0.1845,0.1852,0.1714,0.1613,0.1591,0.1571,0.1771,0.177,0.1768,0.1546,0,0.1806,0.175,0.1698,0.1654,0.1631,0.1571,0.1601,0.1581,0.1597,0.1649,0.1669,0.1802,0.187,0.1907,0.1981,0.1956,0.1929,0.2055,0.21,0.2019,0.1932,0.1915,0.2165,0.2169,0.2172,0.2175,0,0,0.1924,0.1887,0.1926,0.1858,0.183,0.1886,0.1817,0.1837,0.1878,0.1888,0.1901,0.2023,0.2101,0.2143,0.2119,0.218,0.2145,0.2116,0.2075,0.2063,0.2052,0.1964,0.1944,0.2181,0.2182,0.2183,0.2184,0,0.1983,0.1998,0.1946,0.1938,0.1921,0.1961,0.1925,0.1965,0.197,0.1964,0.2065,0.2109,0.2149,0.2233,0.2278,0.222,0.2223,0.2212,0.2069,0.2101,0.2085,0.2071,0.198,0.196,0.2192,0.2191,0.2191,0,0.2076,0.2094,0.2089,0.2106,0.2116,0.208,0.2161,0.212,0.2096,0.2228,0.2183,0.2261,0.2361,0.2359,0.2352,0.2381,0.2291,0.2349,0.2336,0.231,0.2347,0.2329,0.2313,0.2515,0.2515,0.2515,0,0,0.2113,0.2101,0.2153,0.2128,0.2114,0.2171,0.2164,0.2185,0.2223,0.2227,0.2266,0.2318,0.237,0.2365,0.2423,0.2409,0.2427,0.2378,0.2363,0.235,0.2317,0.235,0.2334,0.2515,0.2515,0.2516,0,0,0.2142,0.2193,0.222,0.2196,0.2211,0.229,0.2239,0.2273,0.2293,0.2274,0.236,0.237,0.2348,0.2408,0.2407,0.2406,0.2483,0.2484,0.2325,0.2308,0.2294,0.2237,0.2469,0,0,0,0,0,0.2234,0.2192,0.2216,0.2219,0.2281,0.2292,0.23,0.2318,0.2322,0.2287,0.234,0.2364,0.2438,0.2439,0.245,0.2381,0.2521,0.252,0.2519,0.2316,0.2297,0.2281,0,0,0,0,0,0,0.2236,0.2244,0.2217,0.2296,0.2308,0.2296,0.2355,0.2363,0.2324,0.2322,0.2364,0.237,0.2436,0.2437,0.2446,0.2378,0.2466,0.2521,0.252,0.2519,0.231,0.2294,0.2281,0,0,0,0,0,0.2238,0.2244,0.2329,0.2298,0.2308,0.233,0.2354,0.2361,0.2329,0.2403,0.2407,0.2325,0.2437,0.2443,0.2443,0.2372,0.246,0.2463,0.252,0.252,0.2519,0.2302,0,0,0,0,0,0,0.2239,0.228,0.2332,0.2336,0.2272,0.2329,0.2338,0.2358,0.2412,0.2415,0.2374,0.2373,0.2438,0.2443,0.2448,0.2365,0.2455,0.2459,0.2461,0.252,0.2519,0.2519,0,0,0,0,0,0,0.2275,0.2284,0.2335,0.2302,0.2303,0.2327,0.2334,0.2373,0.2412,0.2384,0.2383,0.2372,0.2403,0.2443,0.2447,0.251,0.2452,0.2455,0.2457,0.2458,0.2519,0.2519,0,0,0,0,0,0,0.228,0.2288,0.2302,0.2303,0.2305,0.2364,0.2361,0.2413,0.2406,0.2382,0.2401,0.2398,0.2401,0.2407,0.2446,0.2508,0.251,0.2452,0.2454,0.2455,0.2456,0,0,0,0,0,0,0,0.2283,0.2223,0.229,0.2304,0.2306,0.2371,0.2374,0.2377,0.2406,0.2404,0.2401,0.2399,0.2434,0.2438,0.2441,0.2507,0,0,0.2452,0.2453,0,0,0,0,0,0,0,0,0.222,0.2222,0.229,0.2289,0.2289,0.2371,0.2374,0.2376,0.2405,0.2404,0.2402,0.24,0.2435,0.2438,0.2441,0,0,0,0,0,0,0,0,0,0,0,0,0,0,0,0.229,0.229,0,0.2372,0.2374,0.2376,0.2405,0.2404,0.2402,0.2401,0.2436,0.2438,0.244,0,0,0,0,0,0,0,0,0,0,0,0,0,0,0,0,0,0,0,0,0,0,0,0,0,0,0,0,0,0,0,0,0,0,0,0,0,0,0,0,0,0,0,0,0,0,0,0,0,0,0,0,0,0,0,0,0,0,0,0,0,0,0,0,0,0,0,0,0]}]],[[{"header":{"parameterUnit":"kt","parameterCategory":2,"dx":1,"dy":1,"la1":30.253999710083008,"la2":30.299108505249023,"lo1":-89.0895004272461,"lo2":-89.04439544677734,"nx":28,"ny":28,"refTime":"2022-10-19T21:00:00:Z","depth":"4","parameterNumber":2,"parameterNumberName":"U-component_of_CURRENTS"},"data":[-0.1083,-0.1065,-0.1056,-0.0906,-0.0842,-0.0799,-0.0859,-0.0928,-0.0914,-0.1052,-0.1085,-0.1155,-0.1226,-0.1291,-0.1281,-0.1301,-0.1538,-0.1487,-0.1482,-0.1994,-0.2034,-0.2069,-0.2121,0,0,0,0,0,-0.1161,-0.1133,-0.1094,-0.1029,-0.1021,-0.1021,-0.1079,-0.1136,-0.1265,-0.1181,-0.1311,-0.1273,-0.1298,-0.1329,-0.1324,-0.1438,-0.176,-0.1419,-0.1848,-0.2019,-0.2063,-0.2098,0,0,0,0,0,0,-0.1257,-0.1239,-0.1243,-0.122,-0.1211,-0.1163,-0.1204,-0.121,-0.1282,-0.1508,-0.1365,-0.1521,-0.1633,-0.1641,-0.1645,-0.1714,-0.1737,-0.1786,-0.1839,-0.1883,-0.1867,-0.1756,-0.1207,0,0,0,0,0,-0.1324,-0.1373,-0.1376,-0.1351,-0.1354,-0.1346,-0.1434,-0.1435,-0.1666,-0.1828,-0.1777,-0.1847,-0.1784,-0.1933,-0.1959,-0.1992,-0.2503,-0.2282,-0.2308,-0.2493,-0.2451,-0.2407,-0.2441,-0.2229,-0.2235,-0.2238,-0.2241,0,-0.142,-0.1434,-0.148,-0.1462,-0.1503,-0.1592,-0.1657,-0.1889,-0.1936,-0.2106,-0.2093,-0.223,-0.2357,-0.2214,-0.2428,-0.2477,-0.2444,-0.2395,-0.2592,-0.2524,-0.2464,-0.2488,-0.2509,-0.2276,-0.2273,-0.227,-0.2267,0,-0.1478,-0.1535,-0.154,-0.164,-0.1668,-0.1737,-0.1877,-0.1946,-0.2229,-0.23,-0.2434,-0.267,-0.2747,-0.2951,-0.3021,-0.2955,-0.2914,-0.2751,-0.3123,-0.3064,-0.2568,-0.2576,-0.2334,-0.2321,-0.231,-0.2301,-0.2293,0,-0.1565,-0.1576,-0.1671,-0.1666,-0.1717,-0.1882,-0.1974,-0.2145,-0.2354,-0.2445,-0.2827,-0.2838,-0.3212,-0.3235,-0.3323,-0.3156,-0.33,-0.3055,-0.2966,-0.3394,-0.3397,-0.3341,-0.3339,-0.338,-0.3382,-0.3384,-0.3386,0,-0.1628,-0.1698,-0.172,-0.1743,-0.187,-0.1923,-0.2032,-0.2277,-0.2367,-0.2679,-0.2798,-0.3084,-0.3216,-0.3294,-0.3421,-0.3485,-0.3416,-0.3469,-0.307,-0.3043,-0.3351,-0.3345,-0.3388,-0.3388,-0.3389,-0.3389,-0.339,0,-0.1726,-0.1759,-0.1804,-0.1878,-0.1904,-0.1956,-0.2095,-0.2212,-0.2463,-0.2623,-0.2875,-0.3079,-0.3333,-0.3373,-0.3509,-0.3547,-0.3492,-0.3522,-0.3511,-0.3181,-0.3072,-0.3167,-0.3308,-0.3309,-0.331,-0.3311,-0.3311,0,-0.1743,-0.1791,-0.1856,-0.1894,-0.1921,-0.2018,-0.2126,-0.2275,-0.2435,-0.2585,-0.2844,-0.3105,-0.325,-0.3421,-0.3474,-0.3606,-0.3559,-0.3622,-0.3404,-0.3396,-0.3034,-0.3088,-0.3569,-0.3324,-0.3322,-0.3321,-0.332,0,-0.1746,-0.1843,-0.1852,-0.1866,-0.1987,-0.2007,-0.2121,-0.2251,-0.2333,-0.258,-0.2712,-0.3102,-0.3243,-0.335,-0.3475,-0.3528,-0.3561,-0.3524,-0.352,-0.3341,-0.3451,-0.3138,-0.3099,-0.3564,-0.3565,-0.3566,-0.3329,0,-0.1772,-0.1823,-0.1852,-0.1925,-0.1975,-0.2021,-0.2103,-0.2187,-0.2309,-0.2431,-0.2714,-0.2881,-0.3099,-0.325,-0.3315,-0.35,-0.3426,-0.342,-0.3273,-0.3421,-0.33,-0.3294,-0.3336,-0.3334,-0.3332,-0.3331,0,0,-0.1745,-0.18,-0.1858,-0.1898,-0.1929,-0.2001,-0.2038,-0.2097,-0.2219,-0.2308,-0.2357,-0.2751,-0.287,-0.3077,-0.3212,-0.3258,-0.32,-0.325,-0.3389,-0.3396,-0.3402,-0.3292,-0.3288,-0.3328,-0.3327,-0.3326,-0.3326,0,-0.1743,-0.1807,-0.1839,-0.1881,-0.1954,-0.1985,-0.2011,-0.21,-0.2152,-0.2291,-0.2371,-0.2572,-0.2782,-0.2894,-0.2979,-0.3207,-0.3144,-0.3333,-0.3394,-0.3374,-0.3384,-0.3392,-0.3286,-0.3283,-0.3321,-0.3322,-0.3322,0,-0.172,-0.1767,-0.1791,-0.1871,-0.1919,-0.1956,-0.197,-0.2032,-0.2076,-0.2113,-0.2235,-0.2388,-0.2515,-0.271,-0.2806,-0.2742,-0.3001,-0.3009,-0.3023,-0.3011,-0.2983,-0.2998,-0.3011,-0.282,-0.2818,-0.2816,0,0,-0.1715,-0.1759,-0.1817,-0.1875,-0.1901,-0.1952,-0.1977,-0.2007,-0.2066,-0.2096,-0.218,-0.2302,-0.2451,-0.251,-0.2642,-0.2783,-0.2709,-0.2944,-0.2967,-0.2986,-0.2985,-0.2963,-0.298,-0.2808,-0.2808,-0.2808,0,0,-0.1709,-0.1772,-0.1804,-0.1861,-0.1913,-0.1955,-0.1981,-0.2004,-0.2071,-0.2091,-0.2139,-0.2162,-0.236,-0.2386,-0.2269,-0.2658,-0.2569,-0.2592,-0.2609,-0.2639,-0.2662,-0.2626,-0.2278,0,0,0,0,0,-0.1733,-0.1764,-0.1792,-0.1809,-0.1896,-0.1948,-0.1956,-0.1982,-0.1996,-0.2023,-0.2083,-0.2107,-0.2364,-0.2258,-0.2282,-0.2458,-0.2704,-0.2723,-0.274,-0.2801,-0.2833,-0.2859,0,0,0,0,0,0,-0.174,-0.1762,-0.179,-0.1837,-0.1856,-0.1947,-0.1941,-0.1949,-0.1994,-0.1997,-0.2091,-0.2108,-0.2137,-0.2249,-0.227,-0.2439,-0.2271,-0.2711,-0.2727,-0.2741,-0.2812,-0.2838,-0.286,0,0,0,0,0,-0.1745,-0.1763,-0.1906,-0.1835,-0.1852,-0.1891,-0.1941,-0.1947,-0.1993,-0.205,-0.2067,-0.2015,-0.2135,-0.2159,-0.2262,-0.2431,-0.2257,-0.2264,-0.2722,-0.2734,-0.2745,-0.2825,0,0,0,0,0,0,-0.1749,-0.1763,-0.1909,-0.1913,-0.1833,-0.1887,-0.1901,-0.1946,-0.2046,-0.2059,-0.1973,-0.1974,-0.2135,-0.2153,-0.217,-0.243,-0.2245,-0.2253,-0.2258,-0.2731,-0.2741,-0.2749,0,0,0,0,0,0,-0.1753,-0.1767,-0.1911,-0.1907,-0.1911,-0.1883,-0.1896,-0.1975,-0.205,-0.1965,-0.1968,-0.1973,-0.2134,-0.2149,-0.2163,-0.2283,-0.2237,-0.2244,-0.2249,-0.2252,-0.2739,-0.2746,0,0,0,0,0,0,-0.1759,-0.1771,-0.1906,-0.1909,-0.1913,-0.1961,-0.1956,-0.2062,-0.199,-0.1963,-0.199,-0.199,-0.2132,-0.2145,-0.2157,-0.2271,-0.228,-0.2237,-0.2242,-0.2246,-0.2248,0,0,0,0,0,0,0,-0.1763,-0.1688,-0.1883,-0.1911,-0.1914,-0.195,-0.1951,-0.1952,-0.199,-0.199,-0.199,-0.199,-0.2195,-0.2203,-0.2211,-0.2261,0,0,-0.2236,-0.224,0,0,0,0,0,0,0,0,-0.1683,-0.1687,-0.1884,-0.1884,-0.1885,-0.195,-0.1951,-0.1952,-0.199,-0.199,-0.199,-0.199,-0.2197,-0.2203,-0.221,0,0,0,0,0,0,0,0,0,0,0,0,0,0,0,-0.1884,-0.1884,0,-0.195,-0.1951,-0.1952,-0.199,-0.199,-0.199,-0.199,-0.2199,-0.2204,-0.221,0,0,0,0,0,0,0,0,0,0,0,0,0,0,0,0,0,0,0,0,0,0,0,0,0,0,0,0,0,0,0,0,0,0,0,0,0,0,0,0,0,0,0,0,0,0,0,0,0,0,0,0,0,0,0,0,0,0,0,0,0,0,0,0,0,0,0,0,0]}],[{"header":{"parameterUnit":"kt","parameterCategory":2,"dx":1,"dy":1,"la1":30.253999710083008,"la2":30.299108505249023,"lo1":-89.0895004272461,"lo2":-89.04439544677734,"nx":28,"ny":28,"refTime":"2022-10-19T21:00:00:Z","depth":"4","parameterNumber":3,"parameterNumberName":"V-component_of_CURRENTS"},"data":[-0.0291,-0.0366,-0.0416,-0.0518,-0.0583,-0.0746,-0.0844,-0.0895,-0.0778,-0.0759,-0.0421,-0.0351,0.0238,-0.0014,0.079,0.088,0.0932,0.1458,0.1464,0.1501,0.1489,0.1479,0.1198,0,0,0,0,0,-0.0292,-0.0324,-0.0457,-0.0616,-0.0757,-0.0841,-0.1019,-0.1103,-0.1138,-0.0909,-0.0918,-0.0453,0.0122,0.0305,0.0747,0.0704,0.1183,0.1211,0.1231,0.1494,0.1481,0.1212,0,0,0,0,0,0,-0.0317,-0.0379,-0.051,-0.0644,-0.0816,-0.0935,-0.1046,-0.1037,-0.1092,-0.1037,-0.0915,-0.0522,-0.0317,0.0229,0.0694,0.1103,0.1154,0.1201,0.1204,0.1195,0.0943,0.0872,0.1151,0,0,0,0,0,-0.0337,-0.0398,-0.0523,-0.0697,-0.0841,-0.1013,-0.1157,-0.1179,-0.129,-0.1335,-0.1081,-0.0763,-0.0281,0.0221,0.0691,0.1131,0.1203,0.1372,0.1366,0.1183,0.116,0.1199,0.1168,0.1431,0.1429,0.1428,0.1427,0,-0.0334,-0.0404,-0.0642,-0.0742,-0.0842,-0.1024,-0.1142,-0.1316,-0.1372,-0.1349,-0.1277,-0.0928,-0.0728,0.0127,0.0468,0.1125,0.1148,0.1337,0.1141,0.1135,0.1185,0.1155,0.1128,0.1417,0.1418,0.1419,0.1419,0,-0.0318,-0.0444,-0.0606,-0.0828,-0.09,-0.1023,-0.1231,-0.1332,-0.1413,-0.1401,-0.1351,-0.1194,-0.0702,-0.0286,0.0292,0.049,0.0949,0.108,0.0891,0.0949,0.1123,0.1099,0.1399,0.1403,0.1407,0.1409,0.1412,0,-0.0359,-0.0462,-0.0643,-0.0727,-0.09,-0.1029,-0.1197,-0.1298,-0.1373,-0.1379,-0.1305,-0.1181,-0.0768,-0.0404,-0.0022,0.0491,0.0492,0.0757,0.0837,0.06,0.0582,0.0689,0.0678,0.0744,0.074,0.0737,0.0734,0,-0.0304,-0.0494,-0.0634,-0.0699,-0.0895,-0.0987,-0.1094,-0.1206,-0.1279,-0.1274,-0.1227,-0.1014,-0.0799,-0.0494,0.0011,-0.0027,0.0526,0.0506,0.0732,0.0742,0.0665,0.066,0.073,0.073,0.0729,0.0727,0.0726,0,-0.0307,-0.0409,-0.058,-0.0754,-0.08,-0.0899,-0.1061,-0.1161,-0.1185,-0.117,-0.1075,-0.0926,-0.0663,-0.0564,-0.0097,-0.0199,0.0047,0.0277,0.0296,0.0382,0.0443,0.0563,0.058,0.0576,0.0573,0.057,0.0567,0,-0.0222,-0.0386,-0.0452,-0.0607,-0.0693,-0.0738,-0.0858,-0.091,-0.0923,-0.0938,-0.0758,-0.0696,-0.0541,-0.044,-0.0314,0.0007,0.0121,-0.0041,0.0366,0.0381,0.04,0.042,0.0075,0.0519,0.0525,0.053,0.0533,0,-0.0147,-0.0296,-0.0308,-0.0372,-0.0465,-0.0523,-0.0635,-0.0706,-0.0767,-0.0693,-0.0713,-0.0558,-0.043,-0.0367,-0.0223,-0.0095,0.007,0.0029,0.0037,0.0211,0.0348,0.0367,0.0399,0.0065,0.0067,0.0069,0.05,0,-0.0158,-0.0205,-0.0249,-0.0321,-0.0379,-0.0442,-0.0483,-0.0519,-0.0493,-0.0473,-0.0438,-0.0303,-0.0219,-0.0156,-0.0061,0.0011,0.0107,0.0103,0.0174,0.013,0.0332,0.0357,0.0103,0.0106,0.0108,0.011,0,0,-0.0042,-0.0104,-0.0099,-0.017,-0.022,-0.0178,-0.0259,-0.0276,-0.0275,-0.0282,-0.0221,-0.0106,-0.0014,0.0025,0.0047,0.0063,0.0172,0.0112,0.0137,0.0139,0.0142,0.033,0.0352,0.0114,0.0115,0.0116,0.0116,0,-0.004,-0.0027,-0.0074,-0.0111,-0.0137,-0.0138,-0.0158,-0.0156,-0.0151,-0.0188,-0.0079,-0.0003,0.0026,0.0112,0.0155,0.0088,0.025,0.0121,0.0066,0.0153,0.0152,0.0152,0.0336,0.0353,0.0122,0.0122,0.0121,0,0.0019,0.0012,0.0002,-0.0025,-0.002,-0.0082,0.0003,-0.0025,-0.0074,0.0061,0.002,0.0111,0.0197,0.0207,0.0218,0.0254,0.0327,0.0264,0.0254,0.0271,0.0368,0.0365,0.0363,0.0396,0.0397,0.0397,0,0,0.0031,0.0008,0.0002,-0.0017,-0.0034,-0.0004,-0.0014,0.0019,0.0037,0.0055,0.0103,0.0169,0.0214,0.0237,0.0278,0.0268,0.0377,0.0292,0.0279,0.0268,0.0278,0.0371,0.0368,0.0398,0.0398,0.0398,0,0,0.0046,0.0039,0.0075,0.0044,0.003,0.005,0.0028,0.0061,0.0086,0.0114,0.02,0.0217,0.0223,0.0278,0.0282,0.0331,0.0392,0.039,0.0282,0.0267,0.0255,0.026,0.0409,0,0,0,0,0,0.0067,0.0029,0.0061,0.0059,0.0073,0.003,0.0032,0.0084,0.0138,0.0117,0.017,0.0254,0.0312,0.0316,0.0326,0.0332,0.0415,0.0412,0.0409,0.0269,0.0252,0.0238,0,0,0,0,0,0,0.0066,0.0066,0.0061,0.0078,0.0079,0.0034,0.0131,0.0146,0.0142,0.0155,0.0239,0.0257,0.0327,0.0318,0.0326,0.033,0.0407,0.0414,0.0411,0.0409,0.0263,0.025,0.0238,0,0,0,0,0,0.0066,0.0065,0.0081,0.0079,0.0081,0.0126,0.0135,0.0148,0.0162,0.0233,0.0253,0.0198,0.0323,0.0335,0.0323,0.0326,0.0403,0.0405,0.0412,0.041,0.0408,0.0256,0,0,0,0,0,0,0.0065,0.0093,0.0083,0.0083,0.0106,0.0131,0.014,0.0149,0.0245,0.0259,0.0197,0.0206,0.032,0.033,0.0339,0.032,0.0399,0.0402,0.0403,0.0411,0.0409,0.0408,0,0,0,0,0,0,0.0092,0.0094,0.0084,0.0115,0.0121,0.0134,0.0143,0.0155,0.0247,0.0208,0.0216,0.02,0.0314,0.0326,0.0333,0.0349,0.0397,0.0399,0.04,0.0401,0.0409,0.0408,0,0,0,0,0,0,0.0093,0.0095,0.0117,0.0121,0.0127,0.0152,0.0149,0.0176,0.0232,0.0205,0.0241,0.0245,0.0308,0.0317,0.0329,0.0341,0.0347,0.0397,0.0398,0.0399,0.04,0,0,0,0,0,0,0,0.0094,0.0077,0.0061,0.0125,0.0131,0.009,0.0091,0.0093,0.0233,0.0236,0.024,0.0243,0.0384,0.0386,0.0389,0.0334,0,0,0.0396,0.0398,0,0,0,0,0,0,0,0,0.0076,0.0077,0.0061,0.006,0.006,0.009,0.0091,0.0093,0.0233,0.0236,0.0239,0.0242,0.0385,0.0386,0.0389,0,0,0,0,0,0,0,0,0,0,0,0,0,0,0,0.0061,0.006,0,0.009,0.0091,0.0093,0.0234,0.0236,0.0238,0.0241,0.0385,0.0387,0.0388,0,0,0,0,0,0,0,0,0,0,0,0,0,0,0,0,0,0,0,0,0,0,0,0,0,0,0,0,0,0,0,0,0,0,0,0,0,0,0,0,0,0,0,0,0,0,0,0,0,0,0,0,0,0,0,0,0,0,0,0,0,0,0,0,0,0,0,0,0]}]]]